Overview Statistics Trail Chart Weather Telemetry Raw packets
 

This is the latest recevied weather packets stored in our database for station/object EB1BWO-11. If no packets are shown the sender has not sent any weather packets the latest 10 day(s).

<< 27 28 29 30 31 32 33 >>
Time Temp. Humidity Pressure Rain* Wind** Luminosity Snow
1787884706 14.44° C 70% 1018 hPa - - - -
1787883805 14.44° C 69% 1017.8 hPa - - - -
1787882906 14.44° C 69% 1018 hPa - - - -
1787882004 14.44° C 69% 1017.9 hPa - - - -
1787881103 15° C 69% 1017.8 hPa - - - -
1787880203 15° C 69% 1017.7 hPa - - - -
1787879302 15.56° C 69% 1017.7 hPa - - - -
1787878402 15.56° C 69% 1017.6 hPa - - - -
1787877502 15.56° C 69% 1017.8 hPa - - - -
1787876600 16.11° C 68% 1017.8 hPa - - - -
1787875700 16.11° C 68% 1017.8 hPa - - - -
1787874799 16.67° C 68% 1018 hPa - - - -
1787873898 16.67° C 69% 1017.9 hPa - - - -
1787872997 16.67° C 68% 1017.8 hPa - - - -
1787872097 16.67° C 68% 1017.7 hPa - - - -
1787871196 16.67° C 68% 1017.5 hPa - - - -
1787870295 16.67° C 68% 1017.4 hPa - - - -
1787869395 16.67° C 68% 1017.2 hPa - - - -
1787868494 17.22° C 68% 1017 hPa - - - -
1787867593 16.67° C 69% 1016.9 hPa - - - -
1787866693 17.22° C 68% 1016.8 hPa - - - -
1787865792 17.22° C 67% 1016.4 hPa - - - -
1787864892 17.78° C 68% 1016.4 hPa - - - -
1787863994 17.78° C 68% 1016.2 hPa - - - -
1787863090 18.33° C 70% 1016.1 hPa - - - -

* Rain since midnight (hover to see other rain measurements)
** Current wind speed in m/s (hover to see current wind gust speed)